Location: Chuathbaluk
(61.5726°N, 159.2454°W)
Time: 03:50:47
(UTC+00:00)

Transit 4A - Pass Details

Date: 04 December 2020
Orbit: 864 x 980 km, 66.8° (Epoch: 26 January)

Event Time Altitude Azimuth Distance (km) Brightness Sun altitude
Rises 03:43:58 0° 310° (NW) 3,687 11.5 -14.5°
Reaches altitude 10° 03:48:14 10° 283° (WNW) 2,719 11.2 -15.0°
Maximum altitude 03:50:43 13° 260° (W) 2,521 11.4 -15.3°
Drops below altitude 10° 03:53:11 10° 237° (WSW) 2,689 11.6 -15.6°
Sets 03:57:22 0° 210° (SSW) 3,603 11.7 -16.0°
